Flag for U.S.A. Weather past 2 weeks in Birmingham, Alabama, U.S.A.

Now
74 °F

Sunny.


Feels Like: 77 °F
Forecast: 48 / 73 °F
Wind: 7 mph from North

Location: Birmingham International Airport

Current Time: Mar 30, 2015 at 6:51:05 PM

Latest Report: Mar 30, 2015 at 5:53 PM


Visibility: 10 mi

Pressure: 30.10 "Hg

Humidity: 29%

Dew point: 40 °F

Location of BirminghamLocation

Historic Weather in Birmingham — Graph

°F

Birmingham temperature yesterday

Maximum temperature yesterday: 62 °F (at 4:53 PM)
Minimum temperature yesterday: 33 °F (at 2:53 AM)
Average temperature yesterday: 50 °F

Past Weeks' High & Low Weather Summary

 TemperatureHumidityPressure
High81 °F (Mar 17, 3:53 PM)97% (Mar 30, 6:53 AM)30.39 "Hg (Mar 30, 6:53 AM)
Low33 °F (Mar 28, 6:53 AM)22% (Mar 15, 5:53 PM)29.76 "Hg (Mar 26, 5:53 PM)
Average59 °F68%30.09 "Hg
* Reported Mar 15 5:53 PM — Mar 30 5:53 PM, Birmingham, Weather by CustomWeather, © 2015

Note: Actual official high and low records may vary slightly from our data, if they occured in-between our weather recording intervals... More about our weather records

Advertising

Birmingham weather history for previous 24 hours

 ConditionsComfort  
Time TempWeatherWind HumidityBarometerVisibility
5:53 PM
Mon, Mar 30
74 °FSunny.7 mph29%30.10 "Hg10 mi
4:53 PM75 °FSunny.6 mph31%30.11 "Hg10 mi
3:53 PM73 °FPassing clouds.7 mph30%30.13 "Hg10 mi
2:53 PM73 °FScattered clouds.10 mph37%30.15 "Hg10 mi
1:53 PM72 °FPassing clouds.8 mph41%30.17 "Hg10 mi
12:53 PM68 °FPassing clouds.10 mph55%30.19 "Hg10 mi
12:00 PM65 °FPassing clouds.7 mph63%30.22 "Hg10 mi
10:53 AM64 °FScattered clouds.9 mph73%30.22 "Hg10 mi
9:53 AM61 °FScattered clouds.13 mph83%30.20 "Hg10 mi
9:03 AM60 °FFog.8 mph90%30.20 "Hg6 mi
8:53 AM60 °FFog.9 mph90%30.18 "Hg6 mi
7:53 AM59 °FFog.5 mph96%30.17 "Hg6 mi
6:53 AM58 °FMostly cloudy.8 mph97%30.14 "Hg10 mi
5:59 AM59 °FThunderstorms. Fog.12 mph93%30.12 "Hg3 mi
5:04 AM59 °FOvercast.9 mph87%30.10 "Hg10 mi
4:53 AM59 °FOvercast.12 mph84%30.09 "Hg10 mi
3:53 AM59 °FOvercast.13 mph84%30.10 "Hg10 mi
2:53 AM59 °FOvercast.10 mph81%30.11 "Hg10 mi
1:53 AM58 °FMostly cloudy.17 mph75%30.13 "Hg10 mi
12:53 AM58 °FPassing clouds.14 mph70%30.15 "Hg10 mi
11:53 PM
Sun, Mar 29
58 °FPassing clouds.12 mph65%30.19 "Hg10 mi
10:53 PM58 °FClear.8 mph51%30.19 "Hg10 mi
9:53 PM58 °FClear.8 mph47%30.18 "Hg10 mi
8:53 PM57 °FClear.3 mph49%30.20 "Hg10 mi
7:53 PM58 °FSunny.7 mph47%30.20 "Hg10 mi
6:53 PM61 °FSunny.8 mph42%30.21 "Hg10 mi
Weather by CustomWeather, © 2015

See weather overviewHow to use our weather pages